Location: Finkenbach
(49.5340°N, 8.9188°E)
Time: 05:35:04
(UTC+00:00)

SJ 16-02 - Pass Details

Date: 17 June 2025
Orbit: 588 x 596 km, 75.0° (Epoch: 12 July)

Event Time Altitude Azimuth Distance (km) Brightness Sun altitude
Exits shadow 23:04:21 34° 177° (S) 986 1.8 -16.9°
Maximum altitude 23:06:03 64° 108° (ESE) 664 1.3 -16.9°
Drops below altitude 10° 23:10:21 10° 27° (NNE) 1,943 4.8 -17.0°
Sets 23:12:35 0° 25° (NNE) 2,849 5.9 -17.0°
